| time (UTC) | temp C | wind direction | speed KPH | gust KPH | rain 1hr cm | rain 24hr cm | rain mn cm | humidity % | barometer mb |
| 20260905214404 | 27 | 220 | 4.8 | 14.5 | 0.00 | 0.00 | 0.00 | 4 | 1017.9 |
| 20260905213904 | 27 | 225 | 6.4 | 19.3 | 0.00 | 0.00 | 0.00 | 4 | 1017.9 |
| 20260905213404 | 27 | 230 | 16.1 | 20.9 | 0.00 | 0.00 | 0.00 | 4 | 1017.9 |
| 20260905212904 | 27 | 243 | 6.4 | 22.5 | 0.00 | 0.00 | 0.00 | 5 | 1017.9 |
| 20260905212404 | 27 | 232 | 4.8 | 16.1 | 0.00 | 0.00 | 0.00 | 4 | 1018.0 |
| 20260905210904 | 27 | 217 | 11.3 | 19.3 | 0.00 | 0.00 | 0.00 | 5 | 1018.1 |
| 20260905210404 | 27 | 217 | 11.3 | 24.1 | 0.00 | 0.00 | 0.00 | 5 | 1018.2 |
| 20260905205904 | 27 | 230 | 6.4 | 25.7 | 0.00 | 0.00 | 0.00 | 7 | 1018.2 |
| 20260905205404 | 27 | 211 | 9.7 | 24.1 | 0.00 | 0.00 | 0.00 | 6 | 1018.2 |
| 20260905204904 | 27 | 236 | 8.0 | 24.1 | 0.00 | 0.00 | 0.00 | 6 | 1018.3 |
| 20260905204404 | 27 | 208 | 9.7 | 19.3 | 0.00 | 0.00 | 0.00 | 5 | 1018.4 |
| 20260905203904 | 27 | 222 | 9.7 | 27.4 | 0.00 | 0.00 | 0.00 | 5 | 1018.3 |
| 20260905203404 | 27 | 236 | 9.7 | 19.3 | 0.00 | 0.00 | 0.00 | 5 | 1018.3 |
| 20260905202904 | 27 | 231 | 9.7 | 20.9 | 0.00 | 0.00 | 0.00 | 7 | 1018.3 |
| 20260905202405 | 27 | 228 | 11.3 | 32.2 | 0.00 | 0.00 | 0.00 | 6 | 1018.4 |
| 20260905201904 | 27 | 221 | 4.8 | 19.3 | 0.00 | 0.00 | 0.00 | 6 | 1018.3 |
| 20260905201404 | 27 | 229 | 16.1 | 32.2 | 0.00 | 0.00 | 0.00 | 7 | 1018.4 |
| 20260905195904 | 26 | 221 | 9.7 | 22.5 | 0.00 | 0.00 | 0.00 | 7 | 1018.6 |
| 20260905195404 | 26 | 230 | 16.1 | 32.2 | 0.00 | 0.00 | 0.00 | 7 | 1018.6 |
| 20260905194904 | 26 | 231 | 16.1 | 29.0 | 0.00 | 0.00 | 0.00 | 6 | 1018.6 |
| 20260905193904 | 26 | 220 | 12.9 | 24.1 | 0.00 | 0.00 | 0.00 | 7 | 1018.5 |
| 20260905193404 | 26 | 225 | 8.0 | 19.3 | 0.00 | 0.00 | 0.00 | 6 | 1018.5 |
| 20260905192904 | 26 | 237 | 3.2 | 22.5 | 0.00 | 0.00 | 0.00 | 7 | 1018.7 |
| 20260905192404 | 26 | 219 | 4.8 | 16.1 | 0.00 | 0.00 | 0.00 | 8 | 1018.7 |
| 20260905191904 | 26 | 233 | 12.9 | 20.9 | 0.00 | 0.00 | 0.00 | 8 | 1018.9 |
| 20260905191404 | 26 | 230 | 9.7 | 27.4 | 0.00 | 0.00 | 0.00 | 8 | 1018.9 |
| 20260905190404 | 26 | 218 | 9.7 | 19.3 | 0.00 | 0.00 | 0.00 | 9 | 1018.9 |
| 20260905185904 | 26 | 245 | 8.0 | 20.9 | 0.00 | 0.00 | 0.00 | 8 | 1019.0 |
| 20260905185404 | 26 | 223 | 4.8 | 24.1 | 0.00 | 0.00 | 0.00 | 9 | 1019.0 |
| 20260905184904 | 25 | 235 | 19.3 | 38.6 | 0.00 | 0.00 | 0.00 | 8 | 1019.1 |
| 20260905184404 | 25 | 224 | 12.9 | 24.1 | 0.00 | 0.00 | 0.00 | 8 | 1019.1 |
| 20260905183404 | 25 | 237 | 12.9 | 27.4 | 0.00 | 0.00 | 0.00 | 9 | 1019.2 |
| 20260905182904 | 25 | 219 | 11.3 | 24.1 | 0.00 | 0.00 | 0.00 | 10 | 1019.3 |
| 20260905181904 | 25 | 212 | 14.5 | 29.0 | 0.00 | 0.00 | 0.00 | 10 | 1019.3 |
| 20260905181404 | 25 | 229 | 4.8 | 14.5 | 0.00 | 0.00 | 0.00 | 11 | 1019.3 |
| 20260905180904 | 25 | 240 | 0.0 | 22.5 | 0.00 | 0.00 | 0.00 | 12 | 1019.3 |
| 20260905180404 | 25 | 226 | 3.2 | 14.5 | 0.00 | 0.00 | 0.00 | 13 | 1019.4 |
| 20260905175903 | 25 | 232 | 8.0 | 19.3 | 0.00 | 0.00 | 0.00 | 13 | 1019.4 |
| 20260905175404 | 25 | 237 | 3.2 | 14.5 | 0.00 | 0.00 | 0.00 | 15 | 1019.5 |
| 20260905174404 | 24 | 231 | 3.2 | 12.9 | 0.00 | 0.00 | 0.00 | 14 | 1019.5 |
| 20260905173904 | 24 | 213 | 4.8 | 19.3 | 0.00 | 0.00 | 0.00 | 15 | 1019.5 |
| 20260905173404 | 24 | 227 | 4.8 | 19.3 | 0.00 | 0.00 | 0.00 | 15 | 1019.5 |
| 20260905172904 | 23 | 234 | 6.4 | 16.1 | 0.00 | 0.00 | 0.00 | 15 | 1019.6 |
| 20260905172404 | 23 | 233 | 4.8 | 14.5 | 0.00 | 0.00 | 0.00 | 17 | 1019.6 |
| 20260905171904 | 23 | 247 | 1.6 | 4.8 | 0.00 | 0.00 | 0.00 | 18 | 1019.6 |
| 20260905171404 | 23 | 337 | 0.0 | 0.0 | 0.00 | 0.00 | 0.00 | 23 | 1019.6 |
| 20260905170904 | 22 | 337 | 0.0 | 0.0 | 0.00 | 0.00 | 0.00 | 23 | 1019.7 |
| 20260905165906 | 21 | 0 | 0.0 | 0.0 | 0.00 | 0.00 | 0.00 | 28 | 1019.9 |
| 20260905165404 | 21 | 0 | 0.0 | 0.0 | 0.00 | 0.00 | 0.00 | 29 | 1019.9 |
| 20260905164904 | 20 | 0 | 0.0 | 0.0 | 0.00 | 0.00 | 0.00 | 32 | 1019.9 |
| 20260905164404 | 20 | 0 | 0.0 | 0.0 | 0.00 | 0.00 | 0.00 | 31 | 1019.9 |
| 20260905162904 | 18 | 0 | 0.0 | 0.0 | 0.00 | 0.00 | 0.00 | 34 | 1020.0 |
| 20260905162404 | 17 | 0 | 0.0 | 0.0 | 0.00 | 0.00 | 0.00 | 35 | 1020.0 |
| 20260905161904 | 17 | 0 | 0.0 | 0.0 | 0.00 | 0.00 | 0.00 | 36 | 1020.0 |
| 20260905160904 | 16 | 0 | 0.0 | 0.0 | 0.00 | 0.00 | 0.00 | 40 | 1020.0 |
| 20260905160404 | 16 | 0 | 0.0 | 0.0 | 0.00 | 0.00 | 0.00 | 42 | 1020.1 |
| 20260905155904 | 15 | 0 | 0.0 | 0.0 | 0.00 | 0.00 | 0.00 | 43 | 1020.1 |
| 20260905155404 | 15 | 0 | 0.0 | 0.0 | 0.00 | 0.00 | 0.00 | 46 | 1020.1 |
| 20260905154904 | 14 | 0 | 0.0 | 0.0 | 0.00 | 0.00 | 0.00 | 46 | 1020.1 |
| 20260905154404 | 13 | 0 | 0.0 | 0.0 | 0.00 | 0.00 | 0.00 | 47 | 1020.2 |
| 20260905153904 | 13 | 0 | 0.0 | 0.0 | 0.00 | 0.00 | 0.00 | 50 | 1020.2 |
| 20260905153405 | 13 | 0 | 0.0 | 0.0 | 0.00 | 0.00 | 0.00 | 52 | 1020.2 |
| 20260905152904 | 12 | 0 | 0.0 | 0.0 | 0.00 | 0.00 | 0.00 | 55 | 1020.3 |
| 20260905152404 | 11 | 0 | 0.0 | 0.0 | 0.00 | 0.00 | 0.00 | 57 | 1020.3 |
| 20260905151904 | 11 | 0 | 0.0 | 0.0 | 0.00 | 0.00 | 0.00 | 58 | 1020.3 |
| 20260905145404 | 8 | 0 | 0.0 | 0.0 | 0.00 | 0.00 | 0.00 | 67 | 1020.5 |
| 20260905144904 | 7 | 0 | 0.0 | 0.0 | 0.00 | 0.00 | 0.00 | 68 | 1020.6 |
| 20260905144404 | 7 | 0 | 0.0 | 0.0 | 0.00 | 0.00 | 0.00 | 68 | 1020.6 |
| 20260905143903 | 7 | 0 | 0.0 | 0.0 | 0.00 | 0.00 | 0.00 | 69 | 1020.7 |
| 20260905142904 | 7 | 0 | 0.0 | 0.0 | 0.00 | 0.00 | 0.00 | 70 | 1020.6 |
| 20260905142404 | 6 | 0 | 0.0 | 0.0 | 0.00 | 0.00 | 0.00 | 71 | 1020.6 |
| 20260905135904 | 6 | 0 | 0.0 | 0.0 | 0.00 | 0.00 | 0.00 | 71 | 1020.6 |
| 20260905135404 | 6 | 0 | 0.0 | 0.0 | 0.00 | 0.00 | 0.00 | 71 | 1020.5 |
| 20260905134904 | 6 | 0 | 0.0 | 0.0 | 0.00 | 0.00 | 0.00 | 71 | 1020.5 |
| 20260905134404 | 6 | 0 | 0.0 | 0.0 | 0.00 | 0.00 | 0.00 | 71 | 1020.5 |
| 20260905133904 | 6 | 0 | 0.0 | 0.0 | 0.00 | 0.00 | 0.00 | 71 | 1020.5 |
| 20260905133404 | 6 | 0 | 0.0 | 0.0 | 0.00 | 0.00 | 0.00 | 69 | 1020.4 |
| 20260905132904 | 6 | 0 | 0.0 | 0.0 | 0.00 | 0.00 | 0.00 | 69 | 1020.3 |
| 20260905131904 | 6 | 0 | 0.0 | 0.0 | 0.00 | 0.00 | 0.00 | 70 | 1020.2 |
| 20260905131404 | 6 | 0 | 0.0 | 0.0 | 0.00 | 0.00 | 0.00 | 70 | 1020.1 |
| 20260905130404 | 6 | 0 | 0.0 | 0.0 | 0.00 | 0.00 | 0.00 | 69 | 1020.1 |
| 20260905125904 | 6 | 0 | 0.0 | 0.0 | 0.00 | 0.00 | 0.00 | 68 | 1020.0 |
| 20260905125404 | 6 | 0 | 0.0 | 0.0 | 0.00 | 0.00 | 0.00 | 67 | 1020.0 |
| 20260905124404 | 6 | 0 | 0.0 | 0.0 | 0.00 | 0.00 | 0.00 | 68 | 1019.9 |
| 20260905123404 | 7 | 0 | 0.0 | 0.0 | 0.00 | 0.00 | 0.00 | 67 | 1019.7 |
| 20260905122904 | 7 | 0 | 0.0 | 0.0 | 0.00 | 0.00 | 0.00 | 67 | 1019.7 |
| 20260905122404 | 7 | 0 | 0.0 | 0.0 | 0.00 | 0.00 | 0.00 | 67 | 1019.6 |
| 20260905121904 | 7 | 0 | 0.0 | 0.0 | 0.00 | 0.00 | 0.00 | 67 | 1019.5 |
| 20260905121404 | 7 | 0 | 0.0 | 0.0 | 0.00 | 0.00 | 0.00 | 67 | 1019.5 |
| 20260905120904 | 7 | 0 | 0.0 | 0.0 | 0.00 | 0.00 | 0.00 | 67 | 1019.5 |
| 20260905120404 | 7 | 0 | 0.0 | 0.0 | 0.00 | 0.00 | 0.00 | 67 | 1019.5 |
| 20260905115904 | 7 | 0 | 0.0 | 0.0 | 0.00 | 0.00 | 0.00 | 67 | 1019.4 |
| 20260905115404 | 7 | 0 | 0.0 | 0.0 | 0.00 | 0.00 | 0.00 | 67 | 1019.5 |
| 20260905114904 | 7 | 0 | 0.0 | 0.0 | 0.00 | 0.00 | 0.00 | 66 | 1019.4 |
| 20260905114404 | 7 | 0 | 0.0 | 0.0 | 0.00 | 0.00 | 0.00 | 66 | 1019.4 |
| 20260905113904 | 7 | 0 | 0.0 | 0.0 | 0.00 | 0.00 | 0.00 | 66 | 1019.5 |
| 20260905112904 | 7 | 0 | 0.0 | 0.0 | 0.00 | 0.00 | 0.00 | 64 | 1019.5 |
| 20260905112404 | 7 | 0 | 0.0 | 0.0 | 0.00 | 0.00 | 0.00 | 64 | 1019.5 |
| 20260905111904 | 7 | 0 | 0.0 | 0.0 | 0.00 | 0.00 | 0.00 | 64 | 1019.3 |
| 20260905111404 | 7 | 0 | 0.0 | 0.0 | 0.00 | 0.00 | 0.00 | 64 | 1019.4 |
| 20260905110904 | 7 | 0 | 0.0 | 0.0 | 0.00 | 0.00 | 0.00 | 63 | 1019.3 |
| 20260905110404 | 7 | 0 | 0.0 | 0.0 | 0.00 | 0.00 | 0.00 | 62 | 1019.3 |
| 20260905105904 | 8 | 0 | 0.0 | 0.0 | 0.00 | 0.00 | 0.00 | 62 | 1019.2 |
| 20260905105404 | 8 | 0 | 0.0 | 0.0 | 0.00 | 0.00 | 0.00 | 62 | 1019.2 |
| 20260905104904 | 8 | 0 | 0.0 | 0.0 | 0.00 | 0.00 | 0.00 | 62 | 1019.2 |
| 20260905104404 | 8 | 0 | 0.0 | 0.0 | 0.00 | 0.00 | 0.00 | 61 | 1019.2 |
| 20260905102904 | 8 | 0 | 0.0 | 0.0 | 0.00 | 0.00 | 0.00 | 61 | 1019.1 |
| 20260905101404 | 8 | 0 | 0.0 | 0.0 | 0.00 | 0.00 | 0.00 | 60 | 1018.9 |
| 20260905100904 | 8 | 0 | 0.0 | 0.0 | 0.00 | 0.00 | 0.00 | 61 | 1018.9 |
| 20260905095904 | 8 | 0 | 0.0 | 0.0 | 0.00 | 0.00 | 0.00 | 61 | 1018.7 |
| 20260905094904 | 8 | 0 | 0.0 | 0.0 | 0.00 | 0.00 | 0.00 | 61 | 1018.7 |
| 20260905094404 | 8 | 0 | 0.0 | 0.0 | 0.00 | 0.00 | 0.00 | 61 | 1018.7 |
| 20260905093904 | 8 | 0 | 0.0 | 0.0 | 0.00 | 0.00 | 0.00 | 60 | 1018.7 |
| 20260905093404 | 8 | 0 | 0.0 | 0.0 | 0.00 | 0.00 | 0.00 | 59 | 1018.6 |
| 20260905092904 | 8 | 0 | 0.0 | 0.0 | 0.00 | 0.00 | 0.00 | 58 | 1018.6 |
| 20260905092404 | 9 | 0 | 0.0 | 0.0 | 0.00 | 0.00 | 0.00 | 58 | 1018.7 |
| 20260905091904 | 9 | 0 | 0.0 | 0.0 | 0.00 | 0.00 | 0.00 | 57 | 1018.8 |
| 20260905091404 | 9 | 0 | 0.0 | 0.0 | 0.00 | 0.00 | 0.00 | 56 | 1018.8 |
| 20260905090904 | 9 | 0 | 0.0 | 0.0 | 0.00 | 0.00 | 0.00 | 55 | 1018.7 |
| 20260905090404 | 9 | 0 | 0.0 | 0.0 | 0.00 | 0.00 | 0.00 | 56 | 1018.6 |
| 20260905085904 | 10 | 0 | 0.0 | 0.0 | 0.00 | 0.00 | 0.00 | 56 | 1018.7 |
| 20260905085404 | 10 | 0 | 0.0 | 0.0 | 0.00 | 0.00 | 0.00 | 55 | 1018.7 |
| 20260905084904 | 10 | 0 | 0.0 | 0.0 | 0.00 | 0.00 | 0.00 | 55 | 1018.5 |
| 20260905084404 | 10 | 0 | 0.0 | 0.0 | 0.00 | 0.00 | 0.00 | 52 | 1018.5 |
| 20260905083904 | 10 | 0 | 0.0 | 0.0 | 0.00 | 0.00 | 0.00 | 52 | 1018.5 |
| 20260905083404 | 10 | 0 | 0.0 | 0.0 | 0.00 | 0.00 | 0.00 | 52 | 1018.6 |
| 20260905082904 | 10 | 0 | 0.0 | 0.0 | 0.00 | 0.00 | 0.00 | 52 | 1018.6 |
| 20260905082404 | 10 | 0 | 0.0 | 0.0 | 0.00 | 0.00 | 0.00 | 52 | 1018.6 |
| 20260905081904 | 10 | 0 | 0.0 | 0.0 | 0.00 | 0.00 | 0.00 | 52 | 1018.6 |
| 20260905081404 | 10 | 0 | 0.0 | 0.0 | 0.00 | 0.00 | 0.00 | 52 | 1018.4 |
| 20260905080904 | 10 | 0 | 0.0 | 0.0 | 0.00 | 0.00 | 0.00 | 52 | 1018.4 |
| 20260905080404 | 10 | 0 | 0.0 | 0.0 | 0.00 | 0.00 | 0.00 | 52 | 1018.2 |
| 20260905075904 | 10 | 0 | 0.0 | 0.0 | 0.00 | 0.00 | 0.00 | 52 | 1018.5 |
| 20260905075404 | 10 | 0 | 0.0 | 0.0 | 0.00 | 0.00 | 0.00 | 52 | 1018.3 |
| 20260905074404 | 10 | 0 | 0.0 | 0.0 | 0.00 | 0.00 | 0.00 | 52 | 1018.2 |
| 20260905073904 | 10 | 5 | 0.0 | 0.0 | 0.00 | 0.00 | 0.00 | 51 | 1018.2 |
| 20260905073404 | 10 | 5 | 0.0 | 0.0 | 0.00 | 0.00 | 0.00 | 52 | 1018.0 |
| 20260905072404 | 10 | 11 | 0.0 | 4.8 | 0.00 | 0.00 | 0.00 | 54 | 1018.3 |
| 20260905071904 | 9 | 346 | 0.0 | 4.8 | 0.00 | 0.00 | 0.00 | 57 | 1018.1 |
| 20260905071404 | 9 | 310 | 0.0 | 0.0 | 0.00 | 0.00 | 0.00 | 58 | 1017.9 |
| 20260905070904 | 9 | 225 | 0.0 | 0.0 | 0.00 | 0.00 | 0.00 | 59 | 1017.9 |
| 20260905070404 | 9 | 225 | 0.0 | 0.0 | 0.00 | 0.00 | 0.00 | 59 | 1018.4 |
| 20260905065904 | 8 | 225 | 0.0 | 0.0 | 0.00 | 0.00 | 0.00 | 59 | 1018.7 |
| 20260905064904 | 8 | 225 | 0.0 | 0.0 | 0.00 | 0.00 | 0.00 | 59 | 1018.0 |
| 20260905064404 | 8 | 225 | 0.0 | 0.0 | 0.00 | 0.00 | 0.00 | 58 | 1017.9 |
| 20260905063904 | 8 | 225 | 0.0 | 0.0 | 0.00 | 0.00 | 0.00 | 58 | 1017.7 |
| 20260905063404 | 8 | 225 | 0.0 | 0.0 | 0.00 | 0.00 | 0.00 | 57 | 1017.8 |
| 20260905062904 | 8 | 225 | 0.0 | 0.0 | 0.00 | 0.00 | 0.00 | 57 | 1017.8 |
| 20260905062405 | 8 | 225 | 0.0 | 0.0 | 0.00 | 0.00 | 0.00 | 56 | 1017.8 |
| 20260905061904 | 8 | 225 | 0.0 | 0.0 | 0.00 | 0.00 | 0.00 | 56 | 1017.8 |
| 20260905061404 | 8 | 225 | 0.0 | 0.0 | 0.00 | 0.00 | 0.00 | 56 | 1017.8 |
| 20260905060404 | 9 | 225 | 0.0 | 0.0 | 0.00 | 0.00 | 0.00 | 57 | 1017.8 |
| 20260905055904 | 9 | 225 | 0.0 | 0.0 | 0.00 | 0.00 | 0.00 | 57 | 1017.7 |
| 20260905055404 | 9 | 225 | 0.0 | 0.0 | 0.00 | 0.00 | 0.00 | 57 | 1017.6 |
| 20260905054904 | 9 | 225 | 0.0 | 0.0 | 0.00 | 0.00 | 0.00 | 58 | 1017.7 |
| 20260905054404 | 9 | 225 | 0.0 | 0.0 | 0.00 | 0.00 | 0.00 | 57 | 1017.5 |
| 20260905053404 | 10 | 225 | 0.0 | 0.0 | 0.00 | 0.00 | 0.00 | 56 | 1017.5 |
| 20260905052904 | 10 | 225 | 0.0 | 0.0 | 0.00 | 0.00 | 0.00 | 56 | 1017.4 |
| 20260905051904 | 10 | 225 | 0.0 | 0.0 | 0.00 | 0.00 | 0.00 | 56 | 1017.5 |
| 20260905050904 | 10 | 225 | 0.0 | 0.0 | 0.00 | 0.00 | 0.00 | 55 | 1017.3 |
| 20260905050404 | 10 | 225 | 0.0 | 0.0 | 0.00 | 0.00 | 0.00 | 56 | 1017.5 |
| 20260905045904 | 10 | 225 | 0.0 | 0.0 | 0.00 | 0.00 | 0.00 | 54 | 1017.5 |
| 20260905045404 | 10 | 225 | 0.0 | 0.0 | 0.00 | 0.00 | 0.00 | 55 | 1017.5 |
| 20260905044905 | 10 | 225 | 0.0 | 0.0 | 0.00 | 0.00 | 0.00 | 54 | 1017.5 |
| 20260905043904 | 10 | 225 | 0.0 | 0.0 | 0.00 | 0.00 | 0.00 | 53 | 1017.5 |
| 20260905043404 | 10 | 225 | 0.0 | 0.0 | 0.00 | 0.00 | 0.00 | 51 | 1017.6 |
| 20260905042904 | 11 | 225 | 0.0 | 0.0 | 0.00 | 0.00 | 0.00 | 50 | 1017.6 |
| 20260905042404 | 11 | 225 | 0.0 | 0.0 | 0.00 | 0.00 | 0.00 | 51 | 1017.6 |
| 20260905041905 | 11 | 225 | 0.0 | 0.0 | 0.00 | 0.00 | 0.00 | 52 | 1017.5 |
| 20260905041404 | 11 | 225 | 0.0 | 0.0 | 0.00 | 0.00 | 0.00 | 52 | 1017.6 |
| 20260905040904 | 11 | 225 | 0.0 | 0.0 | 0.00 | 0.00 | 0.00 | 49 | 1017.6 |
| 20260905040404 | 12 | 225 | 0.0 | 0.0 | 0.00 | 0.00 | 0.00 | 48 | 1017.6 |
| 20260905035904 | 12 | 225 | 0.0 | 0.0 | 0.00 | 0.00 | 0.00 | 49 | 1017.5 |
| 20260905035404 | 12 | 225 | 0.0 | 0.0 | 0.00 | 0.00 | 0.00 | 49 | 1017.6 |
| 20260905034904 | 12 | 225 | 0.0 | 0.0 | 0.00 | 0.00 | 0.00 | 47 | 1017.5 |
| 20260905034404 | 12 | 225 | 0.0 | 0.0 | 0.00 | 0.00 | 0.00 | 46 | 1017.5 |
| 20260905033904 | 13 | 225 | 0.0 | 0.0 | 0.00 | 0.00 | 0.00 | 46 | 1017.6 |
| 20260905033404 | 13 | 225 | 0.0 | 0.0 | 0.00 | 0.00 | 0.00 | 45 | 1017.5 |
| 20260905032904 | 13 | 225 | 0.0 | 0.0 | 0.00 | 0.00 | 0.00 | 45 | 1017.4 |
| 20260905031904 | 14 | 225 | 0.0 | 0.0 | 0.00 | 0.00 | 0.00 | 42 | 1017.3 |
| 20260905030405 | 15 | 225 | 0.0 | 0.0 | 0.00 | 0.00 | 0.00 | 42 | 1017.2 |
| 20260905025905 | 15 | 225 | 0.0 | 0.0 | 0.00 | 0.00 | 0.00 | 42 | 1017.1 |
| 20260905025404 | 15 | 225 | 0.0 | 0.0 | 0.00 | 0.00 | 0.00 | 41 | 1017.1 |
| 20260905023904 | 16 | 225 | 0.0 | 0.0 | 0.00 | 0.00 | 0.00 | 39 | 1016.9 |
| 20260905023404 | 17 | 225 | 0.0 | 0.0 | 0.00 | 0.00 | 0.00 | 39 | 1016.8 |
| 20260905022905 | 17 | 225 | 0.0 | 0.0 | 0.00 | 0.00 | 0.00 | 29 | 1016.7 |
| 20260905022404 | 17 | 225 | 0.0 | 0.0 | 0.00 | 0.00 | 0.00 | 29 | 1016.6 |
| 20260905021904 | 18 | 225 | 0.0 | 0.0 | 0.00 | 0.00 | 0.00 | 28 | 1016.5 |
| 20260905021404 | 18 | 225 | 0.0 | 0.0 | 0.00 | 0.00 | 0.00 | 28 | 1016.5 |
| 20260905020904 | 19 | 225 | 0.0 | 0.0 | 0.00 | 0.00 | 0.00 | 29 | 1016.4 |
| 20260905020404 | 20 | 225 | 0.0 | 0.0 | 0.00 | 0.00 | 0.00 | 28 | 1016.3 |
| 20260905015904 | 20 | 225 | 0.0 | 0.0 | 0.00 | 0.00 | 0.00 | 27 | 1016.2 |
| 20260905015404 | 20 | 225 | 0.0 | 0.0 | 0.00 | 0.00 | 0.00 | 27 | 1016.2 |
| 20260905014904 | 21 | 225 | 0.0 | 0.0 | 0.00 | 0.00 | 0.00 | 24 | 1016.2 |
| 20260905013905 | 22 | 225 | 0.0 | 0.0 | 0.00 | 0.00 | 0.00 | 22 | 1016.0 |
| 20260905013404 | 22 | 225 | 0.0 | 0.0 | 0.00 | 0.00 | 0.00 | 21 | 1016.0 |
| 20260905012904 | 23 | 225 | 0.0 | 0.0 | 0.00 | 0.00 | 0.00 | 20 | 1015.8 |
| 20260905012404 | 23 | 225 | 0.0 | 0.0 | 0.00 | 0.00 | 0.00 | 20 | 1015.8 |
| 20260905011904 | 23 | 225 | 0.0 | 0.0 | 0.00 | 0.00 | 0.00 | 18 | 1015.7 |
| 20260905011404 | 24 | 225 | 0.0 | 0.0 | 0.00 | 0.00 | 0.00 | 13 | 1015.6 |
| 20260905010904 | 24 | 225 | 0.0 | 0.0 | 0.00 | 0.00 | 0.00 | 11 | 1015.7 |
| 20260905005904 | 25 | 225 | 0.0 | 4.8 | 0.00 | 0.00 | 0.00 | 9 | 1015.6 |
| 20260905005404 | 25 | 221 | 1.6 | 4.8 | 0.00 | 0.00 | 0.00 | 9 | 1015.6 |
| 20260905004903 | 25 | 181 | 0.0 | 4.8 | 0.00 | 0.00 | 0.00 | 8 | 1015.6 |
| 20260905004404 | 25 | 136 | 1.6 | 4.8 | 0.00 | 0.00 | 0.00 | 7 | 1015.5 |
| 20260905003904 | 25 | 204 | 0.0 | 9.7 | 0.00 | 0.00 | 0.00 | 7 | 1015.6 |
| 20260905003404 | 26 | 209 | 1.6 | 11.3 | 0.00 | 0.00 | 0.00 | 7 | 1015.5 |
| 20260905002904 | 26 | 223 | 4.8 | 29.0 | 0.00 | 0.00 | 0.00 | 7 | 1015.5 |
| 20260905002404 | 26 | 226 | 8.0 | 19.3 | 0.00 | 0.00 | 0.00 | 6 | 1015.4 |
| 20260905001904 | 26 | 230 | 3.2 | 27.4 | 0.00 | 0.00 | 0.00 | 6 | 1015.3 |
| 20260905001404 | 26 | 239 | 4.8 | 25.7 | 0.00 | 0.00 | 0.00 | 6 | 1015.3 |
| 20260905000904 | 26 | 245 | 8.0 | 19.3 | 0.00 | 0.00 | 0.00 | 6 | 1015.3 |
| 20260905000404 | 26 | 234 | 4.8 | 19.3 | 0.00 | 0.00 | 0.00 | 6 | 1015.2 |
| 20260904235903 | 27 | 219 | 8.0 | 19.3 | 0.00 | 0.00 | 0.00 | 6 | 1015.2 |
| 20260904235404 | 27 | 170 | 4.8 | 22.5 | 0.00 | 0.00 | 0.00 | 6 | 1015.2 |
| 20260904234904 | 27 | 225 | 4.8 | 19.3 | 0.00 | 0.00 | 0.00 | 6 | 1015.2 |
| 20260904234404 | 27 | 127 | 4.8 | 14.5 | 0.00 | 0.00 | 0.00 | 5 | 1015.1 |
| 20260904233904 | 27 | 133 | 3.2 | 11.3 | 0.00 | 0.00 | 0.00 | 6 | 1015.4 |
| 20260904233404 | 27 | 151 | 1.6 | 11.3 | 0.00 | 0.00 | 0.00 | 5 | 1015.3 |
| 20260904232904 | 27 | 215 | 8.0 | 14.5 | 0.00 | 0.00 | 0.00 | 5 | 1015.4 |
| 20260904232404 | 27 | 152 | 4.8 | 20.9 | 0.00 | 0.00 | 0.00 | 5 | 1015.3 |
| 20260904231905 | 27 | 153 | 3.2 | 9.7 | 0.00 | 0.00 | 0.00 | 6 | 1015.3 |
| 20260904231404 | 27 | 233 | 1.6 | 4.8 | 0.00 | 0.00 | 0.00 | 5 | 1015.2 |
| 20260904230904 | 27 | 232 | 3.2 | 19.3 | 0.00 | 0.00 | 0.00 | 7 | 1015.2 |
| 20260904225404 | 27 | 227 | 8.0 | 20.9 | 0.00 | 0.00 | 0.00 | 7 | 1015.3 |
| 20260904224904 | 27 | 227 | 3.2 | 19.3 | 0.00 | 0.00 | 0.00 | 5 | 1015.2 |
| 20260904224404 | 27 | 237 | 9.7 | 19.3 | 0.00 | 0.00 | 0.00 | 5 | 1015.2 |
| 20260904223904 | 27 | 242 | 8.0 | 19.3 | 0.00 | 0.00 | 0.00 | 5 | 1015.2 |
| 20260904223404 | 27 | 229 | 8.0 | 14.5 | 0.00 | 0.00 | 0.00 | 5 | 1015.2 |
| 20260904222404 | 27 | 233 | 4.8 | 24.1 | 0.00 | 0.00 | 0.00 | 6 | 1015.2 |
| 20260904221904 | 27 | 277 | 12.9 | 19.3 | 0.00 | 0.00 | 0.00 | 4 | 1015.3 |
| 20260904221404 | 27 | 223 | 8.0 | 20.9 | 0.00 | 0.00 | 0.00 | 5 | 1015.2 |
| 20260904220904 | 26 | 252 | 4.8 | 14.5 | 0.00 | 0.00 | 0.00 | 7 | 1015.3 |
| 20260904220404 | 26 | 224 | 6.4 | 19.3 | 0.00 | 0.00 | 0.00 | 5 | 1015.3 |
| 20260904215904 | 26 | 235 | 4.8 | 22.5 | 0.00 | 0.00 | 0.00 | 6 | 1015.3 |
| 20260904215404 | 26 | 221 | 3.2 | 16.1 | 0.00 | 0.00 | 0.00 | 6 | 1015.3 |
| 20260904214904 | 26 | 230 | 12.9 | 20.9 | 0.00 | 0.00 | 0.00 | 6 | 1015.5 |